| time (UTC) | temp F | wind direction | speed MPH | gust MPH | rain 1hr in | rain 24hr in | rain mn in | humidity % | barometer mb |
| 20260507233420 | 70 | 153 | 4.0 | 6.0 | 0.00 | 0.02 | 0.01 | 47 | 1013.5 |
| 20260507232423 | 70 | 116 | 8.0 | 10.0 | 0.00 | 0.02 | 0.01 | 46 | 1013.4 |
| 20260507231423 | 69 | 198 | 7.0 | 8.0 | 0.00 | 0.02 | 0.01 | 48 | 1013.6 |
| 20260507230426 | 66 | 168 | 8.0 | 10.0 | 0.00 | 0.02 | 0.01 | 54 | 1013.5 |
| 20260507225426 | 67 | 173 | 4.0 | 6.0 | 0.00 | 0.02 | 0.01 | 53 | 1013.7 |
| 20260507224427 | 64 | 177 | 8.0 | 10.0 | 0.00 | 0.02 | 0.01 | 54 | 1013.7 |
| 20260507223429 | 65 | 168 | 9.0 | 10.0 | 0.00 | 0.02 | 0.01 | 53 | 1013.9 |
| 20260507222421 | 66 | 142 | 7.0 | 8.0 | 0.00 | 0.02 | 0.01 | 51 | 1014.2 |
| 20260507221423 | 67 | 161 | 6.0 | 7.0 | 0.00 | 0.02 | 0.01 | 51 | 1014.1 |
| 20260507220445 | 68 | 176 | 9.0 | 10.0 | 0.00 | 0.02 | 0.01 | 51 | 1014.0 |
| 20260507215426 | 67 | 149 | 7.0 | 8.0 | 0.01 | 0.02 | 0.01 | 48 | 1014.0 |
| 20260507214446 | 69 | 174 | 5.0 | 7.0 | 0.01 | 0.02 | 0.01 | 47 | 1014.0 |
| 20260507213427 | 68 | 157 | 5.0 | 7.0 | 0.01 | 0.02 | 0.01 | 49 | 1014.2 |
| 20260507212446 | 67 | 179 | 4.0 | 5.0 | 0.01 | 0.02 | 0.01 | 58 | 1014.4 |
| 20260507211421 | 63 | 140 | 4.0 | 7.0 | 0.01 | 0.02 | 0.01 | 65 | 1014.4 |
| 20260507210421 | 62 | 170 | 7.0 | 7.0 | 0.01 | 0.02 | 0.01 | 69 | 1014.7 |
| 20260507205446 | 64 | 0.0 | 0.0 | 0.00 | 0.01 | 0.00 | 60 | 1015.2 | |
| 20260507204507 | 64 | 324 | 3.0 | 4.0 | 0.00 | 0.01 | 0.00 | 56 | 1015.3 |
| 20260507203446 | 64 | 188 | 6.0 | 7.0 | 0.00 | 0.01 | 0.00 | 56 | 1015.0 |
| 20260507202428 | 65 | 114 | 4.0 | 5.0 | 0.00 | 0.01 | 0.00 | 52 | 1014.7 |
| 20260507201428 | 67 | 158 | 6.0 | 7.0 | 0.00 | 0.01 | 0.00 | 53 | 1014.7 |
| 20260507200422 | 67 | 141 | 10.0 | 13.0 | 0.00 | 0.01 | 0.00 | 49 | 1014.8 |
| 20260507195423 | 68 | 91 | 7.0 | 9.0 | 0.00 | 0.01 | 0.00 | 50 | 1014.8 |
| 20260507194425 | 66 | 171 | 11.0 | 13.0 | 0.00 | 0.01 | 0.00 | 54 | 1014.8 |
| 20260507193426 | 65 | 121 | 10.0 | 14.0 | 0.00 | 0.01 | 0.00 | 56 | 1014.8 |
| 20260507192426 | 66 | 160 | 9.0 | 11.0 | 0.00 | 0.01 | 0.00 | 57 | 1015.0 |
| 20260507191429 | 65 | 188 | 9.0 | 10.0 | 0.00 | 0.01 | 0.00 | 59 | 1014.9 |
| 20260507190430 | 65 | 167 | 5.0 | 6.0 | 0.00 | 0.01 | 0.00 | 60 | 1015.1 |
| 20260507185443 | 65 | 106 | 6.0 | 8.0 | 0.00 | 0.01 | 0.00 | 62 | 1015.1 |
| 20260507184421 | 65 | 129 | 6.0 | 7.0 | 0.00 | 0.01 | 0.00 | 61 | 1015.3 |
| 20260507183424 | 64 | 120 | 5.0 | 8.0 | 0.00 | 0.01 | 0.00 | 61 | 1015.4 |
| 20260507182445 | 64 | 140 | 5.0 | 7.0 | 0.00 | 0.01 | 0.00 | 61 | 1015.4 |
| 20260507181436 | 62 | 218 | 5.0 | 8.0 | 0.00 | 0.01 | 0.00 | 68 | 1015.3 |
| 20260507180428 | 61 | 146 | 4.0 | 5.0 | 0.00 | 0.01 | 0.00 | 68 | 1015.5 |
| 20260507175446 | 61 | 113 | 5.0 | 7.0 | 0.00 | 0.01 | 0.00 | 68 | 1015.3 |
| 20260507174420 | 60 | 174 | 4.0 | 6.0 | 0.00 | 0.01 | 0.00 | 71 | 1015.5 |
| 20260507173421 | 60 | 108 | 5.0 | 7.0 | 0.00 | 0.01 | 0.00 | 72 | 1015.6 |
| 20260507172423 | 60 | 122 | 3.0 | 4.0 | 0.00 | 0.01 | 0.00 | 72 | 1015.5 |
| 20260507171426 | 60 | 63 | 6.0 | 7.0 | 0.00 | 0.01 | 0.00 | 71 | 1015.4 |
| 20260507170426 | 60 | 159 | 5.0 | 8.0 | 0.00 | 0.01 | 0.00 | 71 | 1015.5 |
| 20260507165448 | 60 | 82 | 6.0 | 7.0 | 0.00 | 0.01 | 0.00 | 69 | 1015.8 |
| 20260507164429 | 60 | 122 | 5.0 | 6.0 | 0.00 | 0.01 | 0.00 | 72 | 1015.9 |
| 20260507163420 | 60 | 48 | 4.0 | 5.0 | 0.00 | 0.01 | 0.00 | 72 | 1016.0 |
| 20260507162422 | 56 | 87 | 2.0 | 3.0 | 0.00 | 0.01 | 0.00 | 81 | 1016.3 |
| 20260507161429 | 54 | 0.0 | 0.0 | 0.00 | 0.01 | 0.00 | 86 | 1016.3 | |
| 20260507160427 | 53 | 309 | 2.0 | 3.0 | 0.00 | 0.01 | 0.00 | 87 | 1016.1 |
| 20260507155426 | 52 | 0.0 | 0.0 | 0.00 | 0.01 | 0.00 | 88 | 1016.0 | |
| 20260507154428 | 52 | 42 | 4.0 | 4.0 | 0.00 | 0.01 | 0.00 | 87 | 1016.0 |
| 20260507153429 | 52 | 342 | 4.0 | 5.0 | 0.00 | 0.01 | 0.00 | 87 | 1016.0 |
| 20260507152420 | 53 | 347 | 4.0 | 6.0 | 0.00 | 0.01 | 0.00 | 86 | 1015.7 |
| 20260507151426 | 53 | 334 | 4.0 | 5.0 | 0.00 | 0.01 | 0.00 | 84 | 1015.8 |
| 20260507150426 | 53 | 54 | 4.0 | 5.0 | 0.00 | 0.01 | 0.00 | 84 | 1015.5 |
| 20260507145426 | 52 | 51 | 4.0 | 4.0 | 0.00 | 0.01 | 0.00 | 86 | 1015.5 |
| 20260507144426 | 52 | 352 | 3.0 | 4.0 | 0.00 | 0.01 | 0.00 | 87 | 1015.5 |
| 20260507143428 | 52 | 24 | 3.0 | 3.0 | 0.00 | 0.01 | 0.00 | 88 | 1015.3 |
| 20260507142429 | 51 | 337 | 5.0 | 5.0 | 0.00 | 0.01 | 0.00 | 88 | 1015.3 |
| 20260507141422 | 51 | 340 | 3.0 | 4.0 | 0.00 | 0.01 | 0.00 | 88 | 1015.0 |
| 20260507140423 | 50 | 328 | 2.0 | 3.0 | 0.00 | 0.01 | 0.00 | 89 | 1014.9 |
| 20260507135429 | 49 | 0.0 | 0.0 | 0.00 | 0.01 | 0.00 | 90 | 1014.8 | |
| 20260507134445 | 49 | 311 | 2.0 | 3.0 | 0.00 | 0.01 | 0.00 | 89 | 1014.8 |
| 20260507133426 | 49 | 330 | 4.0 | 4.0 | 0.00 | 0.01 | 0.00 | 89 | 1014.6 |
| 20260507132428 | 49 | 322 | 3.0 | 4.0 | 0.00 | 0.01 | 0.00 | 90 | 1014.4 |
| 20260507131429 | 48 | 284 | 2.0 | 3.0 | 0.00 | 0.01 | 0.00 | 91 | 1014.3 |
| 20260507130422 | 48 | 0.0 | 0.0 | 0.00 | 0.01 | 0.00 | 90 | 1014.3 | |
| 20260507125422 | 47 | 209 | 1.0 | 2.0 | 0.00 | 0.01 | 0.00 | 90 | 1014.2 |
| 20260507124425 | 47 | 351 | 1.0 | 2.0 | 0.00 | 0.01 | 0.00 | 91 | 1014.1 |
| 20260507123505 | 48 | 0.0 | 0.0 | 0.00 | 0.01 | 0.00 | 90 | 1014.0 | |
| 20260507122426 | 48 | 318 | 3.0 | 3.0 | 0.00 | 0.01 | 0.00 | 90 | 1014.0 |
| 20260507121428 | 48 | 0.0 | 0.0 | 0.00 | 0.01 | 0.00 | 88 | 1013.9 | |
| 20260507120426 | 49 | 336 | 2.0 | 3.0 | 0.00 | 0.01 | 0.00 | 88 | 1013.6 |
| 20260507115422 | 49 | 58 | 0.0 | 1.0 | 0.00 | 0.01 | 0.00 | 88 | 1013.6 |
| 20260507114422 | 49 | 0.0 | 0.0 | 0.00 | 0.01 | 0.00 | 88 | 1013.6 | |
| 20260507113423 | 49 | 7 | 2.0 | 3.0 | 0.00 | 0.01 | 0.00 | 88 | 1013.7 |
| 20260507112425 | 48 | 324 | 3.0 | 3.0 | 0.00 | 0.01 | 0.00 | 90 | 1013.6 |
| 20260507111426 | 47 | 0.0 | 0.0 | 0.00 | 0.01 | 0.00 | 90 | 1013.6 | |
| 20260507110427 | 47 | 0.0 | 0.0 | 0.00 | 0.01 | 0.00 | 89 | 1013.4 | |
| 20260507105450 | 48 | 96 | 1.0 | 2.0 | 0.00 | 0.01 | 0.00 | 88 | 1013.5 |
| 20260507104420 | 49 | 0.0 | 0.0 | 0.00 | 0.01 | 0.00 | 87 | 1013.4 | |
| 20260507103422 | 49 | 277 | 2.0 | 2.0 | 0.00 | 0.01 | 0.00 | 86 | 1013.3 |
| 20260507102423 | 49 | 314 | 3.0 | 4.0 | 0.00 | 0.01 | 0.00 | 87 | 1013.4 |
| 20260507101426 | 49 | 298 | 3.0 | 4.0 | 0.00 | 0.01 | 0.00 | 87 | 1013.2 |
| 20260507100426 | 49 | 337 | 2.0 | 2.0 | 0.00 | 0.01 | 0.00 | 86 | 1013.2 |
| 20260507095427 | 49 | 294 | 2.0 | 2.0 | 0.00 | 0.01 | 0.00 | 86 | 1013.3 |
| 20260507094429 | 50 | 0.0 | 0.0 | 0.00 | 0.01 | 0.00 | 84 | 1013.1 | |
| 20260507093420 | 51 | 209 | 4.0 | 4.0 | 0.00 | 0.01 | 0.00 | 83 | 1013.1 |
| 20260507092422 | 52 | 0.0 | 0.0 | 0.00 | 0.01 | 0.00 | 81 | 1013.2 | |
| 20260507091428 | 52 | 327 | 3.0 | 3.0 | 0.00 | 0.01 | 0.00 | 80 | 1013.4 |
| 20260507090427 | 53 | 1 | 7.0 | 8.0 | 0.00 | 0.01 | 0.00 | 79 | 1013.7 |
| 20260507085426 | 53 | 318 | 6.0 | 7.0 | 0.00 | 0.01 | 0.00 | 80 | 1013.5 |
| 20260507084428 | 53 | 339 | 4.0 | 5.0 | 0.00 | 0.01 | 0.00 | 80 | 1013.5 |
| 20260507083429 | 53 | 34 | 8.0 | 10.0 | 0.00 | 0.01 | 0.00 | 81 | 1013.6 |
| 20260507082422 | 54 | 354 | 8.0 | 10.0 | 0.00 | 0.01 | 0.00 | 81 | 1013.6 |
| 20260507081443 | 55 | 336 | 12.0 | 13.0 | 0.00 | 0.01 | 0.00 | 79 | 1013.6 |
| 20260507080423 | 55 | 23 | 4.0 | 5.0 | 0.00 | 0.01 | 0.00 | 75 | 1013.1 |
| 20260507075424 | 54 | 18 | 4.0 | 7.0 | 0.00 | 0.01 | 0.00 | 78 | 1013.4 |
| 20260507074426 | 54 | 348 | 6.0 | 7.0 | 0.00 | 0.01 | 0.00 | 78 | 1013.2 |
| 20260507073448 | 55 | 95 | 7.0 | 7.0 | 0.00 | 0.01 | 0.00 | 74 | 1013.0 |
| 20260507072426 | 55 | 0.0 | 0.0 | 0.00 | 0.01 | 0.00 | 73 | 1012.7 | |
| 20260507071522 | 55 | 285 | 3.0 | 3.0 | 0.00 | 0.01 | 0.00 | 72 | 1012.9 |
| 20260507070422 | 56 | 167 | 5.0 | 6.0 | 0.00 | 0.01 | 0.00 | 72 | 1012.7 |
| 20260507065443 | 56 | 356 | 1.0 | 2.0 | 0.00 | 0.01 | 0.00 | 68 | 1012.9 |
| 20260507064426 | 55 | 255 | 3.0 | 3.0 | 0.00 | 0.01 | 0.00 | 69 | 1012.8 |
| 20260507063426 | 55 | 240 | 2.0 | 3.0 | 0.00 | 0.01 | 0.00 | 74 | 1012.9 |
| 20260507062428 | 55 | 308 | 2.0 | 3.0 | 0.00 | 0.01 | 0.00 | 74 | 1012.4 |
| 20260507061430 | 55 | 334 | 2.0 | 2.0 | 0.00 | 0.01 | 0.00 | 72 | 1012.3 |
| 20260507060420 | 55 | 344 | 2.0 | 3.0 | 0.00 | 0.01 | 0.00 | 72 | 1012.5 |
| 20260507055422 | 55 | 0.0 | 0.0 | 0.00 | 0.01 | 0.01 | 72 | 1012.0 | |
| 20260507054425 | 56 | 114 | 2.0 | 4.0 | 0.00 | 0.01 | 0.01 | 70 | 1012.0 |
| 20260507053426 | 56 | 32 | 2.0 | 3.0 | 0.00 | 0.01 | 0.01 | 67 | 1012.0 |
| 20260507052446 | 57 | 78 | 6.0 | 8.0 | 0.01 | 0.01 | 0.01 | 65 | 1012.1 |
| 20260507051428 | 58 | 160 | 7.0 | 7.0 | 0.01 | 0.01 | 0.01 | 61 | 1011.2 |
| 20260507050425 | 58 | 164 | 3.0 | 4.0 | 0.01 | 0.01 | 0.01 | 61 | 1012.3 |
| 20260507045427 | 57 | 294 | 4.0 | 4.0 | 0.01 | 0.01 | 0.01 | 62 | 1012.9 |
| 20260507044422 | 57 | 300 | 7.0 | 7.0 | 0.01 | 0.01 | 0.01 | 65 | 1013.0 |
| 20260507043428 | 58 | 314 | 9.0 | 11.0 | 0.01 | 0.01 | 0.01 | 65 | 1012.7 |
| 20260507042426 | 56 | 312 | 9.0 | 10.0 | 0.00 | 0.00 | 0.00 | 66 | 1012.4 |
| 20260507041426 | 56 | 111 | 0.0 | 1.0 | 0.00 | 0.00 | 0.00 | 70 | 1011.5 |
| 20260507040428 | 56 | 0.0 | 0.0 | 0.00 | 0.00 | 0.00 | 68 | 1011.7 | |
| 20260507035429 | 56 | 0.0 | 0.0 | 0.00 | 0.00 | 0.00 | 67 | 1011.7 | |
| 20260507034420 | 56 | 0.0 | 0.0 | 0.00 | 0.00 | 0.00 | 65 | 1011.6 | |
| 20260507033423 | 57 | 0.0 | 0.0 | 0.00 | 0.00 | 0.00 | 63 | 1011.4 | |
| 20260507032426 | 58 | 155 | 3.0 | 3.0 | 0.00 | 0.00 | 0.00 | 62 | 1011.5 |
| 20260507031426 | 59 | 0.0 | 0.0 | 0.00 | 0.00 | 0.00 | 60 | 1011.5 | |
| 20260507030426 | 59 | 0.0 | 0.0 | 0.00 | 0.00 | 0.00 | 59 | 1011.4 | |
| 20260507025428 | 60 | 338 | 2.0 | 2.0 | 0.00 | 0.00 | 0.00 | 58 | 1011.3 |
| 20260507024429 | 61 | 0.0 | 0.0 | 0.00 | 0.00 | 0.00 | 53 | 1011.2 | |
| 20260507023422 | 62 | 67 | 3.0 | 3.0 | 0.00 | 0.00 | 0.00 | 53 | 1011.1 |
| 20260507022422 | 62 | 100 | 1.0 | 1.0 | 0.00 | 0.00 | 0.00 | 49 | 1011.3 |
| 20260507021445 | 63 | 173 | 2.0 | 2.0 | 0.00 | 0.00 | 0.00 | 51 | 1011.1 |
| 20260507020425 | 63 | 219 | 4.0 | 5.0 | 0.00 | 0.00 | 0.00 | 47 | 1010.9 |
| 20260507015426 | 63 | 210 | 4.0 | 4.0 | 0.00 | 0.00 | 0.00 | 51 | 1011.0 |
| 20260507014428 | 64 | 174 | 4.0 | 5.0 | 0.00 | 0.00 | 0.00 | 50 | 1011.2 |
| 20260507013445 | 64 | 134 | 2.0 | 2.0 | 0.00 | 0.00 | 0.00 | 46 | 1011.3 |
| 20260507012422 | 65 | 140 | 2.0 | 3.0 | 0.00 | 0.00 | 0.00 | 47 | 1011.3 |
| 20260507011442 | 65 | 0.0 | 0.0 | 0.00 | 0.00 | 0.00 | 45 | 1011.4 | |
| 20260507010444 | 65 | 156 | 0.0 | 1.0 | 0.00 | 0.00 | 0.00 | 49 | 1011.6 |
| 20260507005445 | 65 | 201 | 3.0 | 3.0 | 0.00 | 0.00 | 0.00 | 48 | 1011.4 |
| 20260507004426 | 66 | 175 | 4.0 | 4.0 | 0.00 | 0.00 | 0.00 | 45 | 1011.4 |
| 20260507003428 | 65 | 172 | 4.0 | 5.0 | 0.00 | 0.00 | 0.00 | 44 | 1011.5 |
| 20260507002425 | 65 | 163 | 5.0 | 5.0 | 0.00 | 0.00 | 0.00 | 47 | 1011.6 |
| 20260507001422 | 65 | 178 | 5.0 | 6.0 | 0.00 | 0.00 | 0.00 | 43 | 1011.8 |
| 20260507000422 | 65 | 190 | 6.0 | 7.0 | 0.00 | 0.00 | 0.00 | 45 | 1011.6 |
| 20260506235424 | 65 | 175 | 7.0 | 9.0 | 0.00 | 0.00 | 0.00 | 42 | 1011.9 |